Theta_e
321 322 321 322 323 323 324 324 324 326 328 328 327 325 329 333 328 326 336 341 334 335 346 346 346 348 345 346 348 347 346 347 347 348 348 349 350 350 350 351 351 352 353 352 352 351 349 346 345 347 348 346 344 344 344 343 342 341 342 342 343 343 343 343 343 342 343 344 345 347 348 348 347 347 348 349 349 349 349 349 349 348 348 350 351 352 352
321 322 322 322 322 322 323 324 325 326 328 329 329 329 332 335 335 334 337 341 341 342 345 346 346 347 345 346 346 345 346 347 347 348 348 349 350 350 350 350 351 352 352 352 352 352 351 349 349 350 351 349 346 345 344 342 341 340 341 342 343 343 344 344 343 342 342 342 343 345 347 347 346 345 346 348 350 350 349 349 350 350 349 350 351 351 351
320 321 322 322 321 322 322 323 324 325 327 329 329 332 333 332 336 339 339 340 344 346 346 347 346 344 345 345 345 345 346 346 347 348 349 349 349 349 349 349 350 350 350 351 351 351 351 351 351 351 350 350 349 347 345 343 341 340 341 342 342 342 342 343 343 342 341 341 343 344 344 346 347 347 347 348 348 347 345 345 347 347 345 346 348 349 350
317 320 321 321 321 321 320 322 326 326 325 327 329 333 335 334 336 339 336 336 341 346 346 346 344 344 345 345 346 346 346 346 347 347 348 349 349 348 347 347 348 348 348 349 350 350 350 351 351 350 350 350 349 347 346 344 342 341 341 341 341 341 341 342 343 341 340 343 345 345 344 345 346 347 348 348 348 347 346 346 345 343 342 343 343 345 348
316 318 321 320 320 319 318 323 328 329 328 329 330 332 336 337 338 336 334 336 342 345 345 342 343 344 344 345 346 346 346 346 347 346 347 348 347 346 346 346 346 346 346 347 347 348 349 349 349 349 349 349 349 348 347 347 345 343 343 343 342 342 340 340 340 340 339 341 343 343 342 343 345 346 348 349 350 350 350 350 349 346 344 341 337 339 344
316 318 320 320 318 318 320 325 329 330 331 331 331 332 333 336 337 336 337 339 341 342 342 341 342 343 343 345 345 345 346 346 346 347 347 347 346 345 345 345 344 344 344 344 345 346 347 347 347 347 348 348 349 349 349 349 349 348 348 348 347 345 344 343 342 341 340 340 341 341 340 341 344 345 347 349 351 351 351 351 351 350 346 342 339 341 344
316 318 318 317 317 319 324 326 325 327 330 330 331 334 335 335 336 336 337 339 340 341 342 341 341 342 343 344 344 345 345 345 345 346 345 345 344 344 344 343 342 343 343 344 344 344 344 345 345 345 346 347 347 348 348 349 349 350 350 349 349 348 348 347 346 345 344 343 343 343 342 342 343 344 346 348 348 349 350 349 349 350 348 345 345 347 348
317 316 316 317 320 323 325 325 324 326 327 327 330 334 334 334 334 336 337 339 341 343 342 341 341 343 343 343 343 343 343 343 343 343 343 343 343 342 343 342 341 343 343 343 343 343 343 343 343 343 344 344 345 347 347 347 348 349 350 350 349 350 349 349 348 348 348 348 347 347 347 345 344 345 346 347 348 349 350 347 347 349 349 348 348 349 350
318 315 315 319 322 323 325 326 325 325 326 326 327 331 333 331 332 336 338 339 340 341 341 341 341 341 341 341 341 341 341 341 341 341 342 343 341 341 341 340 341 341 341 341 342 342 342 342 342 342 342 342 343 345 345 346 347 347 348 347 347 348 348 348 349 349 349 349 349 349 348 348 347 348 348 348 349 349 349 348 348 349 350 350 350 350 351
319 316 315 317 317 321 325 326 324 324 325 325 326 330 332 328 328 333 336 337 339 340 340 341 340 340 340 341 340 339 338 338 339 340 342 341 340 339 339 340 340 340 339 340 340 341 341 341 341 341 341 341 342 343 343 344 344 345 345 345 344 345 346 347 347 348 348 347 348 348 348 348 347 348 348 348 348 348 348 348 349 349 349 349 350 350 350
318 317 316 314 316 322 326 324 324 325 325 326 327 328 329 327 326 329 332 336 339 339 339 339 339 339 340 341 340 338 337 337 339 340 340 339 338 338 338 339 338 338 338 338 338 339 339 339 340 340 340 340 340 340 340 341 341 341 342 343 342 343 343 343 344 343 342 342 343 344 345 345 345 345 345 345 345 345 346 348 348 348 348 348 348 348 347
317 317 316 316 320 325 325 323 324 325 324 326 327 327 327 327 326 327 330 334 337 339 339 338 338 339 341 341 339 337 336 337 338 338 338 338 337 337 337 337 336 336 335 335 336 336 337 337 337 338 338 339 338 338 338 338 339 340 340 340 340 339 339 339 340 340 340 340 341 342 341 341 341 342 342 342 342 342 343 344 345 346 346 346 346 345 345
316 315 315 316 321 325 324 323 325 325 324 326 326 326 326 326 326 327 329 331 335 337 338 337 338 339 340 339 337 336 336 337 336 337 337 337 336 336 335 334 334 333 333 333 333 334 334 334 334 334 335 335 335 336 336 337 339 339 339 338 336 334 334 334 335 338 340 340 340 340 339 338 338 338 338 337 336 337 339 340 341 341 342 342 341 342 342
317 317 315 315 321 325 324 324 326 325 324 326 325 325 326 326 327 328 329 331 334 337 337 337 338 339 338 336 335 335 335 335 335 335 335 335 335 334 332 332 332 331 331 332 331 331 331 331 331 330 329 329 331 334 335 336 337 337 336 334 329 326 328 328 329 332 333 334 336 337 338 338 335 333 333 333 332 332 333 333 333 334 336 337 338 339 339
318 318 316 315 320 324 324 324 326 324 324 324 324 325 326 326 328 329 330 332 334 335 336 337 338 338 336 335 334 334 334 334 334 334 334 333 332 330 329 329 330 330 329 329 329 330 330 330 330 327 324 324 328 330 330 332 333 333 331 327 322 321 326 329 331 332 331 332 335 336 337 337 334 332 331 330 329 328 326 324 324 325 326 328 330 330 331
319 320 321 320 322 324 324 324 325 324 323 323 324 325 327 328 329 329 330 333 334 335 336 336 336 337 335 334 334 335 334 334 333 333 332 332 330 328 328 329 330 329 329 329 329 329 329 328 327 325 323 323 324 325 325 326 328 328 327 324 321 322 326 330 332 332 331 332 332 332 332 331 331 329 327 324 322 322 320 319 320 320 320 322 323 323 325
322 323 325 324 324 324 324 323 324 324 323 323 324 325 327 328 328 329 330 331 332 334 335 335 335 335 334 333 333 333 332 332 331 331 331 331 330 329 329 329 329 329 329 329 328 328 328 327 327 325 324 323 322 322 322 322 323 326 328 328 327 327 328 329 330 330 330 328 327 327 327 327 326 326 324 321 320 318 317 317 318 318 320 321 320 319 321
322 323 324 324 324 324 324 323 323 323 323 323 324 325 326 327 327 328 329 330 331 332 333 334 333 333 332 332 332 331 330 330 329 330 331 330 329 329 329 328 328 327 327 327 326 326 326 326 326 326 324 323 322 324 325 325 326 328 329 329 329 329 329 329 328 328 328 327 326 326 326 325 324 324 321 319 318 318 318 319 319 321 324 326 324 323 323
322 322 324 325 324 324 324 323 323 322 323 323 324 323 324 325 326 327 328 328 329 330 332 332 332 331 330 330 330 329 328 328 328 328 329 328 327 327 327 326 324 323 322 323 323 322 321 321 323 324 324 322 321 324 326 327 327 327 328 327 327 327 327 327 327 327 326 325 324 323 322 321 321 319 318 316 315 316 317 318 318 322 326 327 327 327 327
322 323 324 324 323 323 323 323 323 323 322 323 323 323 322 324 325 326 327 327 328 329 330 331 330 330 330 329 329 328 328 327 328 328 327 325 324 324 325 324 322 320 318 319 318 317 316 317 318 319 320 321 321 323 326 327 326 326 327 326 326 326 326 326 326 325 323 322 322 322 320 319 319 318 317 316 315 315 315 316 318 321 324 326 326 327 327
321 322 323 324 323 323 323 323 322 322 322 323 323 323 322 322 323 324 326 326 326 327 328 329 329 328 328 328 328 327 326 326 327 327 326 325 323 322 323 322 320 317 315 314 314 314 314 315 316 316 318 321 322 323 324 325 325 325 326 326 326 326 326 326 326 324 323 323 324 322 320 318 318 318 317 317 316 315 315 315 317 318 319 321 322 323 324
319 321 323 323 322 323 323 322 321 321 321 322 323 323 323 322 322 323 324 325 325 326 326 327 327 327 325 325 326 326 325 324 325 325 324 323 322 321 320 318 316 315 313 312 312 311 312 315 317 319 320 322 323 323 323 323 324 324 324 325 325 325 325 325 325 324 324 324 323 322 321 320 319 318 317 317 317 317 316 316 316 316 316 317 317 317 317
320 322 322 322 321 322 322 321 321 321 321 321 322 322 323 322 321 322 323 324 325 325 325 325 326 326 324 324 325 325 324 323 324 324 323 321 321 321 319 317 317 316 314 313 313 312 313 317 319 320 321 321 322 322 323 323 323 323 323 324 324 324 324 324 324 324 324 324 323 323 322 322 321 319 319 318 317 317 317 317 316 316 316 316 316 315 315
321 321 321 320 320 321 320 319 320 320 320 320 321 321 322 322 322 321 322 323 323 324 325 324 325 325 325 324 323 323 323 322 324 324 322 321 321 321 319 319 319 316 313 314 315 316 317 318 318 319 319 320 320 321 322 322 323 323 323 323 323 323 323 323 323 323 323 323 323 323 322 322 321 321 320 319 318 318 317 316 316 316 316 316 315 315 314
320 321 321 320 320 320 320 319 320 320 319 320 320 320 321 321 320 320 321 322 322 323 323 324 324 325 325 324 323 323 323 323 323 324 323 321 321 320 320 319 319 316 314 313 314 316 317 318 317 317 318 318 319 320 321 321 322 322 322 322 322 322 322 323 322 322 322 323 322 322 322 321 321 321 320 320 319 318 317 316 316 315 315 315 315 315 314
319 320 320 320 320 320 319 319 319 319 319 319 319 319 320 320 319 319 320 321 321 322 322 323 323 323 323 324 324 323 322 323 323 323 322 321 321 320 320 319 318 318 317 315 313 313 314 315 316 316 316 316 317 318 318 319 320 321 321 321 321 321 321 322 322 322 322 322 321 321 321 320 320 320 320 319 319 319 318 317 317 316 315 315 314 313 313
319 319 319 319 319 319 319 319 319 318 318 318 318 319 320 320 319 320 320 320 320 321 321 321 322 321 321 322 323 322 322 322 322 322 321 321 321 321 320 319 318 317 318 316 313 311 311 312 313 314 313 313 314 315 316 317 318 319 319 319 320 320 320 321 321 321 320 320 320 320 320 319 319 319 319 318 318 318 318 318 318 317 316 315 313 311 311
318 318 318 319 318 318 318 318 317 317 317 317 318 318 319 319 320 320 320 320 319 320 320 320 320 320 320 321 321 322 322 322 321 321 321 321 321 321 319 318 317 317 317 316 314 312 311 310 311 311 310 309 310 312 314 315 315 316 317 318 318 318 319 319 319 319 319 318 318 318 318 318 317 317 317 317 317 317 317 317 316 316 316 316 314 312 311
317 316 316 316 316 316 317 317 317 317 316 316 317 317 318 318 319 319 319 319 319 319 320 319 320 320 320 320 320 321 321 321 321 321 320 320 320 320 318 317 316 316 316 315 314 312 311 311 311 312 310 308 307 309 312 313 314 314 316 316 316 316 316 317 317 317 316 316 316 316 316 316 316 316 316 316 316 316 315 315 315 315 315 315 314 314 314
316 315 315 315 314 315 316 316 316 316 316 315 316 316 316 317 317 318 318 318 318 319 319 319 319 319 320 320 320 320 321 321 321 321 320 319 319 318 317 317 316 315 314 314 313 312 311 311 312 313 312 309 306 306 309 311 313 313 313 314 314 314 314 315 315 315 314 314 314 313 314 314 315 315 315 314 314 314 314 314 314 313 313 313 313 313 314
316 315 315 315 315 315 315 315 315 316 315 315 315 315 314 315 316 316 317 317 317 318 318 318 318 318 318 319 319 319 320 320 321 320 320 319 318 317 317 317 316 315 314 313 312 312 311 311 312 313 311 308 307 307 308 309 311 312 311 312 312 312 312 313 313 313 313 312 312 312 313 313 313 313 313 313 312 312 312 312 312 312 312 312 312 311 312
316 316 316 315 315 314 314 314 314 314 314 314 314 314 313 313 314 314 315 315 316 317 317 317 318 318 318 318 318 319 319 319 319 319 319 318 317 317 317 317 315 314 313 312 311 312 311 311 312 312 310 307 308 308 308 308 309 310 310 310 310 310 310 311 311 311 311 311 311 312 312 312 312 312 312 312 311 311 311 311 311 311 311 310 310 310 309
315 315 316 315 314 313 313 313 312 311 311 311 311 312 312 311 312 312 313 314 315 316 316 316 317 317 317 317 317 317 318 318 317 318 318 317 317 317 317 316 314 313 312 312 311 312 311 310 310 311 309 307 308 309 308 307 308 309 310 310 309 308 307 307 309 309 309 309 310 311 311 311 311 311 311 311 310 310 310 310 310 310 309 309 309 308 307
315 314 314 313 312 311 311 311 310 310 310 310 310 310 310 310 310 310 311 312 313 314 314 315 315 316 316 317 317 317 317 317 317 317 317 317 317 317 317 316 315 314 314 313 312 312 312 311 309 308 307 307 308 308 307 307 308 308 308 308 308 307 305 303 305 307 308 309 309 310 310 310 310 310 310 310 309 308 308 308 308 308 308 308 308 307 305
314 313 312 311 311 310 310 310 310 310 310 309 309 309 309 309 309 309 310 310 311 311 312 313 314 314 315 315 316 316 316 316 316 317 317 317 316 315 315 316 316 316 315 314 313 314 313 311 309 308 307 308 309 308 306 305 306 305 303 304 305 306 305 304 306 308 309 308 308 309 309 309 309 309 308 308 307 307 307 307 307 307 307 307 307 306 305
313 312 312 311 311 310 309 309 309 309 309 309 309 309 309 309 309 309 309 310 310 310 310 311 312 313 314 315 315 316 316 316 316 316 316 316 315 314 313 314 316 316 315 314 314 314 313 310 309 308 307 307 309 308 305 303 303 302 300 302 304 305 305 306 307 307 307 307 308 308 308 308 308 307 307 307 307 307 307 307 306 306 306 306 306 306 305
313 312 312 311 310 310 309 309 309 309 308 309 309 309 309 309 309 309 309 309 309 310 310 310 310 311 312 314 314 314 315 316 316 316 316 316 316 315 314 314 315 315 315 315 315 314 312 310 309 308 306 306 308 307 304 301 301 300 300 303 305 305 305 306 307 307 307 307 307 307 306 306 307 306 306 306 306 306 306 306 305 305 305 305 304 304 303
311 310 310 310 309 309 309 309 308 308 308 308 308 308 308 308 308 308 309 309 309 309 310 310 310 310 311 312 312 313 314 315 316 316 316 316 316 315 314 315 315 315 315 315 315 314 312 310 309 308 307 307 308 307 303 299 299 300 301 304 306 306 306 306 307 307 307 306 306 306 306 306 306 306 305 305 305 305 305 304 304 304 304 304 303 302 302
310 310 309 309 308 308 308 308 308 308 308 308 308 308 308 308 308 308 308 308 308 308 309 309 309 309 310 311 311 312 313 314 315 316 316 316 315 314 314 314 315 314 314 315 314 313 312 311 309 309 309 308 308 307 303 299 298 300 302 304 306 306 306 306 306 306 305 305 305 305 305 305 305 305 305 304 303 303 303 302 302 302 302 302 302 302 302
310 310 309 308 308 308 308 308 308 308 308 308 308 308 308 308 307 307 308 308 308 308 308 309 309 309 310 310 311 311 312 313 314 314 315 315 316 315 314 314 314 313 313 314 314 313 312 310 309 309 309 309 308 307 303 299 298 300 302 303 305 306 306 305 305 304 304 303 302 303 304 303 303 303 303 302 301 302 302 301 301 301 302 302 302 301 301
310 309 308 308 308 308 308 308 308 308 308 308 308 308 308 308 307 308 308 308 308 308 308 308 309 309 309 310 310 310 311 312 313 313 314 315 316 315 314 314 314 313 313 313 313 313 312 310 309 310 310 309 308 307 304 300 298 300 302 304 305 305 304 304 304 304 303 302 302 302 303 302 301 301 301 301 301 301 301 301 301 301 301 301 301 300 300
308 308 307 308 308 308 308 308 308 308 307 307 308 308 308 308 308 307 308 308 308 308 307 308 308 307 308 308 309 310 310 311 311 312 314 315 315 315 314 314 314 314 313 313 312 312 312 310 309 310 310 309 308 306 303 300 300 302 303 304 304 304 303 303 303 302 302 302 302 302 302 302 302 301 301 301 301 301 300 300 300 300 300 300 300 299 299
308 307 307 308 308 308 308 308 308 307 307 307 307 307 307 307 307 307 308 308 308 308 308 308 307 307 307 307 308 308 309 309 310 311 312 313 314 315 314 314 314 314 313 312 312 312 312 311 310 310 310 309 308 306 302 300 301 303 303 303 303 303 302 302 302 301 300 300 301 301 301 301 301 301 301 301 301 301 300 299 300 300 299 299 299 299 299
308 308 308 308 308 308 308 307 308 307 307 307 307 307 307 307 307 307 307 307 307 307 308 308 308 307 307 307 307 307 307 308 309 310 311 312 312 313 314 314 314 313 312 312 312 312 312 311 310 310 309 309 307 305 302 300 301 303 303 302 302 302 302 301 301 301 300 300 301 301 300 300 300 301 301 301 301 300 299 299 300 299 299 299 299 299 298
308 308 308 308 308 308 308 308 307 307 307 307 307 307 307 307 307 307 307 307 307 307 307 307 307 307 307 307 307 307 307 307 308 309 310 311 311 312 313 314 313 313 312 312 312 312 312 311 310 310 309 309 307 304 302 301 302 302 302 302 302 302 302 301 301 301 301 300 300 300 300 300 300 301 300 300 300 300 299 299 299 299 298 298 298 298 298
308 308 308 308 308 308 307 306 306 307 307 307 307 307 306 306 306 306 307 307 307 307 307 307 307 307 307 307 307 307 307 307 307 307 308 309 310 311 312 313 313 312 311 311 311 312 311 311 311 310 309 308 305 302 301 301 302 302 302 302 302 302 302 302 302 301 301 301 301 301 300 300 300 300 300 299 299 299 299 298 298 299 299 298 298 298 298
308 308 308 308 307 307 306 306 306 307 307 307 306 306 306 306 306 307 307 307 307 307 307 307 306 306 306 306 307 307 307 307 306 306 307 308 308 309 310 311 311 311 311 311 311 311 311 310 310 309 308 307 304 302 301 301 301 302 302 302 302 302 302 302 302 301 301 301 301 300 300 300 300 300 299 299 299 299 299 298 298 299 299 298 298 298 298
308 308 308 307 307 306 306 306 306 306 306 306 306 306 307 307 307 307 306 306 306 306 306 306 306 306 306 306 306 306 306 306 306 306 307 307 308 309 309 310 310 311 311 311 311 310 309 309 309 308 307 306 303 301 300 301 302 302 302 302 302 302 302 302 302 302 301 301 301 300 300 300 300 300 300 299 299 299 299 299 299 299 299 299 298 298 298
307 307 307 307 307 306 306 306 307 306 306 306 306 307 307 307 306 306 306 306 306 306 306 306 306 306 306 306 305 305 305 305 305 306 307 308 309 310 310 310 310 310 311 311 311 310 309 309 308 308 306 304 302 301 300 300 302 302 302 302 302 302 302 302 302 301 301 301 301 300 300 300 300 300 300 300 300 299 299 299 299 299 299 298 298 298 298
307 307 307 307 307 306 306 306 306 306 306 306 306 307 307 306 306 306 306 306 306 307 307 307 307 307 306 306 305 305 305 305 305 305 307 309 309 309 310 311 311 310 310 311 310 309 309 308 308 306 304 303 302 300 300 300 301 301 302 302 301 301 301 301 300 300 301 301 300 300 300 300 300 300 300 299 299 299 299 299 299 299 298 298 298 298 298
307 306 306 306 306 306 306 306 306 306 306 306 306 306 306 306 306 306 306 306 307 307 307 307 307 307 307 306 306 306 306 307 306 306 307 308 308 308 308 310 310 310 310 310 309 309 309 308 306 305 304 303 301 301 300 300 300 300 301 301 301 301 301 300 300 300 300 300 300 300 300 300 300 300 300 300 300 299 299 299 299 299 299 299 298 298 298
306 306 305 306 306 306 306 306 305 305 305 306 306 306 306 306 306 306 306 306 307 307 307 307 307 307 307 307 307 307 307 307 307 307 307 307 307 308 308 309 309 309 309 309 309 308 307 306 305 304 303 302 301 301 300 299 299 300 300 301 301 301 301 301 301 301 301 300 300 300 300 300 300 300 300 300 300 300 299 299 299 299 299 299 299 298 298
Wind_Speed
5 4 4 3 2 2 2 2 2 2 4 5 8 9 3 3 6 5 1 5 10 7 8 11 10 10 10 10 10 10 10 11 12 12 12 12 13 14 15 17 17 16 16 16 17 17 18 22 23 22 23 27 29 28 25 24 23 22 23 25 26 26 25 24 23 21 19 18 17 16 16 16 16 16 16 15 15 15 15 14 14 14 14 13 12 12 12
4 4 2 2 2 2 2 2 3 1 3 2 3 4 0 1 2 3 2 6 6 3 4 9 9 9 10 11 11 11 11 11 11 12 12 12 12 13 14 15 15 14 14 14 14 14 15 17 17 16 16 21 27 30 29 27 25 24 23 24 24 25 25 24 22 21 20 19 19 18 17 17 17 18 17 16 15 15 16 15 14 14 15 14 13 12 12
3 2 1 2 3 2 2 2 4 2 2 1 0 0 1 1 1 3 2 5 3 2 5 9 9 9 10 12 12 12 12 12 12 12 12 13 12 12 12 11 11 11 12 13 14 14 15 16 16 16 16 16 18 21 23 24 25 25 24 24 24 25 25 23 22 22 22 20 20 19 18 18 18 18 18 17 17 16 16 16 15 16 17 16 15 13 11
6 2 1 1 3 4 3 3 7 6 2 1 3 3 4 4 2 2 2 3 1 3 6 8 8 8 10 11 12 12 12 12 13 12 12 12 12 12 11 10 10 11 12 14 15 16 17 19 19 19 19 18 16 17 19 21 24 25 23 24 26 26 26 25 24 24 24 21 19 19 20 19 18 18 18 17 18 18 16 15 15 16 16 16 17 15 13
7 6 4 3 4 6 4 3 8 9 5 4 3 3 5 5 4 3 2 1 3 1 4 5 6 8 9 10 11 11 12 13 13 12 12 12 12 11 10 10 10 11 11 12 13 15 17 17 18 18 19 19 18 18 19 20 23 24 23 24 26 26 27 28 28 29 28 25 22 22 22 20 17 17 18 17 17 18 16 14 14 15 15 17 18 16 14
7 6 5 7 8 7 2 4 7 8 7 8 6 4 7 6 4 3 2 2 2 2 5 5 6 8 9 9 10 10 11 12 12 12 13 12 12 12 11 11 10 11 11 11 11 12 12 11 11 11 12 13 15 17 19 20 21 20 20 20 22 23 24 25 27 28 29 28 26 25 26 23 19 18 19 17 18 20 19 17 15 15 14 15 16 14 14
4 3 5 10 9 4 3 5 8 8 6 8 7 3 6 8 5 4 4 3 2 3 5 5 7 9 9 9 10 9 10 11 11 13 12 11 11 12 11 11 11 12 12 12 12 11 10 9 7 6 6 8 12 16 19 21 21 21 21 22 23 23 22 21 23 24 23 24 24 24 26 25 23 23 22 19 18 19 19 19 19 18 16 15 15 14 14
3 4 7 8 3 4 4 3 9 10 7 9 7 0 5 11 9 6 6 4 2 2 5 6 7 9 10 9 8 8 9 9 9 11 11 12 12 13 12 11 12 13 12 11 11 10 9 10 9 7 6 6 7 12 15 18 20 22 24 25 25 23 22 21 22 21 19 19 19 19 20 23 25 24 22 20 19 18 17 17 18 19 18 17 17 16 15
3 6 6 4 5 4 3 4 8 9 7 8 7 1 5 12 12 9 6 4 2 1 4 7 9 11 10 7 7 8 8 7 7 9 12 13 12 11 11 11 11 11 9 7 7 7 8 9 9 7 6 5 4 5 8 11 14 18 21 21 21 21 21 21 21 20 19 18 16 15 16 19 21 20 17 18 20 20 20 18 18 18 17 17 16 15 16
2 6 6 5 7 5 3 7 8 9 7 5 5 3 2 10 16 15 9 5 2 1 5 9 11 12 9 7 9 11 11 10 10 10 12 13 11 11 12 12 12 10 8 8 8 9 9 11 11 10 7 7 8 10 10 9 11 14 15 15 15 15 15 15 16 16 16 16 15 15 16 17 17 16 15 16 18 18 19 19 19 19 18 17 16 14 14
3 5 7 6 5 1 6 9 10 11 9 5 4 5 2 9 19 20 15 8 2 3 6 9 11 11 8 7 10 13 13 12 12 12 13 13 12 12 13 13 13 13 12 13 14 14 14 14 13 12 12 12 14 16 16 15 14 14 14 15 15 14 13 13 14 12 12 12 12 12 13 13 12 12 12 14 15 16 16 16 16 17 17 17 17 15 13
1 3 6 4 1 4 8 12 12 12 10 5 5 6 1 11 19 20 17 12 5 4 7 9 11 10 6 4 11 15 14 13 13 13 14 14 14 15 14 14 14 15 15 16 17 16 17 16 14 13 14 15 17 18 18 16 16 17 18 17 17 16 16 15 15 14 14 13 12 11 11 11 12 12 12 13 13 13 12 12 13 14 14 14 14 13 12
1 2 5 3 4 5 10 13 13 14 9 3 3 2 5 14 19 18 17 15 9 6 8 10 10 8 4 4 14 18 15 16 15 14 14 15 14 14 14 15 16 16 16 17 16 16 16 15 14 13 14 15 16 17 17 17 17 19 19 19 19 19 19 18 17 17 18 17 17 16 15 15 15 14 13 13 13 12 11 11 11 12 11 11 11 11 10
1 1 4 3 4 5 13 14 12 14 9 3 1 8 11 14 16 15 15 15 11 8 9 10 9 7 3 9 17 18 16 17 16 14 17 19 16 14 15 15 16 16 16 16 16 15 14 12 12 13 14 16 16 16 18 18 18 19 19 18 15 15 16 17 16 16 17 17 16 15 14 15 15 14 13 13 12 12 12 12 11 11 10 9 9 9 8
3 3 3 3 2 6 14 12 7 10 8 2 6 12 13 13 13 14 13 11 9 9 9 10 9 6 6 10 14 14 14 14 13 12 15 17 17 17 17 15 14 15 16 16 15 14 13 12 12 11 12 15 16 16 18 18 16 16 17 16 13 13 16 17 16 16 17 16 15 14 14 13 13 13 12 12 12 12 12 11 11 11 9 8 8 7 7
3 4 1 1 2 6 12 9 5 6 6 5 7 10 11 12 13 13 12 9 7 9 9 10 9 6 8 10 11 10 9 8 8 11 13 13 16 18 17 15 13 13 14 15 14 12 11 12 13 12 12 14 15 16 17 18 15 14 15 15 14 15 17 17 16 17 17 16 14 13 12 11 11 11 11 11 11 11 10 10 10 10 8 8 7 6 6
3 3 3 4 4 5 8 7 6 5 5 5 7 8 9 12 12 12 12 10 8 10 9 6 5 7 12 14 13 12 9 5 6 10 11 12 14 17 17 16 14 12 12 13 13 11 9 9 11 11 11 12 13 15 16 17 16 16 17 17 17 18 17 16 16 15 15 13 12 11 11 10 9 9 10 9 9 9 8 8 7 6 6 5 5 4 4
3 3 3 4 4 5 6 6 5 6 6 7 8 8 9 11 12 12 12 10 8 8 5 3 5 10 16 16 13 13 13 9 8 10 12 12 13 15 18 19 16 13 12 12 11 10 9 8 8 8 9 10 12 12 13 14 14 15 16 18 18 18 17 16 15 14 12 11 10 9 8 7 6 6 6 6 6 8 9 8 8 7 6 6 6 6 5
2 1 3 4 3 5 6 6 5 7 8 8 9 9 10 11 11 11 11 9 7 6 3 6 8 12 16 16 13 14 16 14 10 10 12 13 12 14 16 17 15 12 10 10 10 9 9 8 7 7 8 9 10 10 9 10 11 11 13 16 17 16 15 14 14 13 12 11 10 9 8 7 7 6 5 5 7 9 9 9 9 8 7 7 8 8 8
2 1 4 3 3 4 5 6 7 8 9 10 10 10 10 10 10 10 10 9 8 5 1 6 10 12 14 14 13 12 14 16 15 12 11 12 13 14 14 12 11 10 9 8 7 6 6 6 6 7 7 8 9 9 9 9 10 9 10 13 14 14 14 13 13 13 12 11 11 11 11 10 10 9 8 8 8 9 9 9 9 9 8 8 8 8 7
2 3 3 2 3 4 2 5 7 8 9 10 11 10 11 11 11 10 10 9 8 6 2 4 8 12 14 17 19 16 15 17 20 20 18 15 13 13 13 12 9 8 6 4 3 3 4 5 5 5 7 6 6 7 6 8 9 9 10 11 12 12 12 11 11 12 11 11 10 10 10 10 9 10 10 9 9 8 8 9 9 9 9 9 8 8 7
3 2 3 3 2 3 1 5 7 8 9 10 10 11 12 12 12 12 10 8 7 5 2 1 5 9 11 16 22 21 17 18 20 21 20 19 17 14 12 11 9 6 4 3 2 2 3 5 6 6 6 5 5 5 5 6 8 9 10 11 11 11 10 9 10 10 11 10 10 9 9 8 8 9 9 9 9 8 8 8 7 7 7 7 6 6 6
2 3 4 4 4 4 4 6 8 8 8 9 10 11 11 12 12 12 11 9 8 5 2 1 2 6 9 14 20 23 20 19 20 19 18 17 16 15 13 8 4 5 5 5 3 2 3 5 6 6 5 5 5 5 5 5 7 8 9 10 10 10 10 11 12 11 11 10 10 9 8 7 7 7 8 8 8 7 7 7 6 6 6 5 4 4 4
2 2 2 2 4 6 6 7 8 7 7 8 9 10 10 11 11 11 10 9 8 6 3 1 1 3 7 10 16 21 21 19 20 20 18 16 15 13 10 7 4 1 4 4 3 2 3 4 5 6 6 5 5 4 5 5 6 7 8 9 9 9 10 13 14 12 11 10 10 8 7 6 5 5 6 6 6 6 5 5 4 4 4 4 4 4 4
3 2 2 3 5 6 6 7 5 5 7 8 8 9 10 10 10 10 9 8 7 6 4 1 1 3 5 8 11 15 18 19 21 22 20 17 15 14 13 12 12 7 2 3 2 1 2 2 4 4 4 5 4 5 6 7 7 8 8 9 10 10 10 10 11 10 10 10 10 9 8 7 6 5 4 4 4 4 4 4 4 4 5 5 5 4 5
4 3 4 5 5 4 5 5 4 4 6 7 7 8 9 10 9 8 8 8 6 5 4 1 1 4 6 8 9 13 18 21 22 22 20 19 19 20 19 17 14 11 8 6 4 2 1 2 3 4 3 3 3 4 6 7 9 10 10 9 10 11 11 11 11 11 9 9 9 8 7 6 6 6 5 5 4 3 3 2 2 4 5 7 7 7 6
2 2 4 5 4 2 2 3 3 5 7 7 7 8 8 8 8 7 7 7 7 5 4 2 1 5 8 9 9 11 16 20 20 19 20 21 21 21 19 16 12 10 9 7 5 4 3 3 2 3 3 3 3 4 5 6 7 9 9 9 10 11 11 10 9 8 8 8 7 7 6 6 6 6 6 6 5 4 4 3 2 3 4 4 6 7 7
2 1 2 2 1 1 2 3 3 4 5 5 6 7 7 7 7 6 5 6 6 5 4 3 2 2 6 9 10 10 13 15 17 17 20 23 22 20 18 16 12 10 10 9 7 6 5 4 3 3 4 3 3 5 6 6 7 8 8 8 9 9 9 8 8 8 9 9 9 8 8 8 8 8 7 6 6 6 5 4 4 4 3 3 3 3 5
3 2 1 2 3 3 3 2 3 3 4 4 5 6 7 6 6 6 6 6 6 5 5 4 3 2 3 5 7 9 12 14 15 15 18 22 22 21 19 16 14 13 13 12 11 10 9 7 5 4 4 4 3 5 6 6 6 8 8 9 9 8 9 10 12 12 11 9 9 11 11 9 8 8 7 7 7 6 6 5 5 5 4 4 3 3 5
4 3 3 2 2 2 2 2 2 2 3 4 5 6 7 6 6 6 7 6 6 6 5 4 4 3 4 5 6 8 11 12 13 13 16 20 23 21 19 16 15 17 17 15 13 12 11 9 7 5 4 4 4 3 6 6 6 7 8 11 12 13 13 13 13 12 9 6 7 10 9 7 6 6 7 7 7 7 7 7 7 6 4 4 3 3 3
6 5 3 3 2 1 1 0 1 2 2 4 4 4 6 6 6 6 7 6 6 6 5 5 5 4 5 6 7 8 9 11 13 13 14 18 22 22 18 16 16 18 18 17 16 15 13 10 7 5 5 6 4 3 5 7 6 6 6 8 11 14 16 14 10 7 6 6 6 7 7 6 6 6 6 7 6 6 6 6 6 5 4 4 3 4 3
7 6 5 3 2 1 1 1 2 2 3 4 4 4 5 5 5 6 7 6 6 6 6 6 6 5 6 7 8 9 9 12 16 15 14 16 22 23 20 18 18 19 19 17 16 15 13 11 8 6 5 6 5 4 5 6 7 7 7 6 7 9 12 12 9 6 7 7 7 7 8 8 7 7 7 6 6 5 5 6 5 4 5 4 4 4 4
8 7 6 4 3 3 2 2 3 3 4 4 4 4 5 5 5 6 6 6 6 6 5 6 6 6 7 7 8 9 10 13 17 17 16 18 21 22 20 19 20 21 19 16 15 14 14 13 11 7 7 7 5 5 6 6 7 7 8 8 7 7 10 12 11 10 9 9 9 9 9 8 8 8 8 6 5 5 5 5 5 4 4 4 3 6 8
7 5 3 3 3 2 2 2 3 4 4 5 5 5 5 5 5 6 6 6 6 6 6 6 7 7 7 7 7 8 9 12 15 16 18 20 21 21 19 19 21 21 18 16 16 15 13 13 12 10 9 7 6 7 7 7 7 8 9 9 8 7 8 10 10 9 8 8 9 10 9 8 8 9 8 6 5 5 5 5 5 5 5 4 4 6 8
6 4 3 3 3 2 2 3 4 5 6 6 6 6 6 7 7 7 7 7 7 7 7 7 8 8 8 8 8 9 10 12 14 15 18 20 22 21 19 19 20 21 19 18 16 13 12 13 12 10 9 8 7 8 9 8 8 9 10 10 9 8 8 9 9 9 9 9 10 9 8 8 8 9 8 6 5 5 5 5 5 5 5 5 4 5 7
6 5 5 4 3 3 4 5 6 6 7 8 8 8 9 9 9 9 9 9 8 8 8 8 8 9 9 9 10 10 12 13 13 14 16 19 21 23 23 23 24 25 24 21 17 14 13 14 13 11 10 9 9 8 10 10 9 10 10 10 9 9 9 10 10 10 10 9 9 9 8 8 8 7 6 6 6 6 6 5 6 5 5 4 4 5 5
6 5 5 4 4 4 5 6 7 8 9 9 9 10 10 10 10 10 11 11 10 10 9 9 9 9 10 11 11 11 12 12 12 14 15 16 17 20 24 26 28 28 26 23 20 16 15 16 15 12 10 10 9 8 9 10 10 11 10 10 9 9 9 9 10 10 9 9 9 9 8 8 7 6 6 6 6 6 5 5 5 4 5 5 6 5 5
5 5 4 5 5 5 6 7 8 8 9 9 9 10 10 11 11 12 12 12 12 11 11 11 11 11 11 11 12 12 12 12 12 12 13 14 15 17 22 28 31 30 27 25 23 18 16 17 17 14 11 10 10 9 9 11 11 11 10 9 9 9 9 9 9 9 9 9 9 9 8 8 7 6 6 6 7 7 7 6 6 5 5 5 5 4 3
5 5 5 5 6 6 5 5 6 6 7 8 9 10 10 11 12 13 13 13 13 13 13 13 12 12 12 12 12 12 13 13 13 13 13 15 16 18 21 26 30 30 28 27 25 20 17 18 18 15 12 11 10 9 10 12 13 12 11 11 10 10 10 10 10 10 10 10 9 9 9 8 8 7 7 7 7 7 6 6 6 5 4 4 3 3 4
5 5 5 5 4 4 3 4 4 6 7 8 9 9 10 11 11 12 12 13 13 13 13 13 13 13 13 13 12 12 13 14 14 14 14 15 17 18 20 23 27 29 29 29 28 24 20 19 18 15 12 11 11 11 12 13 14 13 12 11 11 10 10 11 10 10 10 10 9 9 9 8 8 8 7 6 5 5 4 3 3 3 3 3 3 4 5
5 5 4 4 3 3 3 4 5 6 8 9 9 10 10 11 11 12 12 13 13 13 14 14 14 14 14 13 13 13 13 14 14 14 15 15 16 18 19 22 25 27 29 31 32 29 23 21 20 16 12 12 13 13 13 14 14 13 11 11 11 10 11 11 10 10 9 9 8 8 8 7 7 7 6 6 5 5 5 4 3 3 3 4 4 4 4
5 4 4 4 4 4 4 5 6 8 9 10 10 10 11 11 12 12 13 13 13 14 15 15 16 16 16 16 15 14 14 14 14 15 15 16 17 18 18 20 23 26 28 31 32 30 26 23 21 17 14 14 14 14 14 14 14 13 12 12 11 11 11 11 10 10 10 9 9 8 7 7 6 6 6 5 5 4 4 4 4 3 4 4 3 3 3
4 4 4 4 4 5 5 7 8 9 9 10 10 11 11 11 11 12 12 13 13 14 14 15 16 17 18 17 17 16 16 15 15 16 17 17 17 18 17 18 21 24 27 30 31 31 29 27 23 19 18 18 16 14 14 15 14 13 12 12 12 11 11 11 10 9 9 9 8 7 7 7 6 5 5 5 4 4 4 3 3 3 3 3 2 2 3
5 4 4 4 5 5 6 7 8 8 9 10 10 11 11 11 11 11 11 12 13 13 14 15 16 16 17 17 18 18 17 16 15 16 17 18 18 17 17 18 20 21 23 27 31 32 31 29 25 23 22 21 17 14 14 16 15 13 13 13 12 12 11 10 9 9 8 8 7 7 6 6 6 5 5 5 5 4 2 2 2 3 2 1 1 2 3
4 4 4 5 5 6 6 7 7 8 9 10 11 12 13 13 12 11 11 12 13 13 13 14 14 15 17 18 19 19 19 18 17 16 17 19 19 17 17 20 22 22 22 26 30 32 32 31 29 27 25 21 18 16 16 16 15 14 14 14 12 11 10 9 9 8 8 8 7 7 6 6 5 5 4 4 4 3 3 3 3 2 1 1 2 3 4
4 4 5 5 5 6 6 7 8 8 9 10 12 13 13 14 13 13 12 14 15 15 15 14 14 14 15 17 18 19 20 20 19 18 18 19 19 16 15 17 22 24 25 26 28 31 34 35 32 29 26 23 20 18 17 16 15 15 15 14 12 11 10 9 9 8 8 7 7 7 6 6 5 5 5 5 4 3 3 3 2 1 2 3 3 4 4
3 4 5 4 5 5 6 8 9 9 8 10 12 13 13 14 14 14 14 15 16 16 16 16 16 16 15 15 16 18 19 20 20 19 19 19 19 17 16 16 18 21 23 25 27 30 34 35 32 29 27 25 21 19 18 17 16 15 15 13 12 11 10 9 9 8 7 7 7 7 7 6 5 5 5 4 4 3 3 2 2 2 3 4 4 5 5
4 4 4 4 5 6 6 8 8 8 8 10 11 13 13 14 15 15 15 15 15 15 15 16 17 17 16 14 15 16 18 19 19 18 17 17 17 17 17 17 17 17 19 23 26 27 30 32 32 30 28 25 22 20 19 17 16 15 14 13 12 11 10 9 8 7 7 7 7 6 5 5 5 5 5 5 4 4 4 4 3 3 4 4 5 6 6
4 3 3 4 4 5 6 7 7 7 8 9 10 11 13 14 15 15 15 14 14 14 14 14 14 14 14 13 14 15 17 18 18 16 14 14 15 15 15 16 18 18 18 21 24 25 27 30 32 31 28 24 22 21 20 18 16 14 13 13 12 11 10 9 9 8 8 7 6 6 6 6 6 6 6 6 5 5 6 5 5 6 8 9 7 6 6
3 3 3 3 4 4 5 5 6 7 8 9 9 10 12 13 14 15 15 14 14 13 12 11 10 11 11 11 12 13 14 16 17 16 13 13 14 15 15 16 18 19 19 21 23 26 29 31 32 30 28 25 23 22 20 19 17 15 13 12 11 11 11 11 12 11 8 7 6 7 7 7 7 7 7 6 6 7 7 6 6 8 10 9 8 6 6
3 3 3 3 2 3 4 4 6 7 7 8 9 10 12 13 13 14 14 13 12 10 8 7 6 7 8 9 10 11 11 12 13 14 14 14 14 15 16 16 17 18 20 22 25 29 32 34 33 30 28 25 22 20 19 18 18 16 15 13 11 10 10 10 10 9 7 7 7 7 7 7 8 8 7 7 7 7 7 6 6 7 7 7 7 7 7
2 2 3 2 1 2 2 3 5 6 7 7 8 10 11 13 14 14 13 12 11 9 7 5 5 6 7 7 8 8 10 11 11 13 14 15 15 15 14 15 17 19 21 24 28 31 34 34 31 27 25 23 20 18 18 18 17 16 14 12 11 10 9 9 8 7 7 7 7 7 8 8 8 8 7 7 7 7 7 7 7 8 8 8 8 8 9
Wind_Direction
76 63 91 103 109 114 111 121 125 171 190 208 228 233 268 299 251 260 244 210 242 241 176 172 177 176 182 180 169 169 173 171 170 173 180 185 185 187 190 193 195 196 196 198 199 201 208 212 214 216 220 223 228 234 237 238 234 229 227 227 228 228 226 223 223 226 229 229 226 219 216 218 218 216 216 218 220 221 222 222 224 225 224 225 226 226 227
95 71 103 166 191 150 138 107 72 109 195 194 225 220 164 325 264 324 308 221 235 263 153 154 159 167 173 172 171 175 180 180 175 172 178 181 177 176 180 186 190 191 192 195 196 198 203 207 210 214 218 221 225 229 232 233 230 226 224 225 227 228 227 224 222 223 228 233 234 230 224 222 222 221 219 220 222 225 229 227 226 227 226 224 226 228 231
163 79 62 213 227 216 169 106 52 21 207 169 39 101 29 300 305 10 302 216 189 75 111 131 144 162 166 168 175 178 177 176 172 170 175 173 167 165 163 164 169 171 177 185 187 190 196 201 204 207 210 212 213 218 223 226 227 225 223 224 227 229 228 225 223 224 227 231 233 233 229 225 224 223 221 221 222 225 231 233 232 235 235 233 231 230 233
201 182 283 238 243 250 201 106 31 3 333 16 26 40 17 345 332 331 263 221 146 85 110 127 148 170 172 173 177 176 172 172 171 170 169 160 153 155 153 147 146 148 159 174 179 185 193 197 202 206 208 208 208 211 217 222 225 225 224 225 227 230 230 229 228 229 229 227 227 228 227 227 229 228 225 225 224 223 225 231 236 239 241 241 239 233 230
214 208 261 269 246 246 217 90 20 4 7 4 11 68 41 6 335 304 278 354 20 90 138 146 169 181 181 178 175 174 173 173 172 172 168 158 152 156 154 145 140 142 151 166 178 190 198 201 207 213 214 215 217 218 221 225 228 228 227 226 226 227 230 231 231 233 234 233 234 233 232 230 231 232 232 231 229 224 220 222 229 234 237 241 242 236 231
230 218 257 259 237 235 226 48 15 1 8 1 353 37 43 27 4 345 335 4 2 206 179 177 190 193 189 180 175 175 174 173 173 175 171 159 156 164 157 140 132 134 139 145 158 177 187 188 198 208 210 215 220 221 220 223 224 224 222 221 222 225 228 230 233 235 236 236 238 241 241 236 233 234 233 231 230 227 222 222 227 230 233 237 240 235 231
260 232 240 245 235 207 111 56 18 359 356 355 346 14 44 32 20 359 338 342 343 233 201 192 196 195 188 179 175 177 182 180 180 179 166 147 151 165 156 140 140 143 143 145 147 150 150 145 146 156 171 196 214 219 221 222 222 220 220 220 221 223 224 226 228 229 232 233 235 239 241 238 236 236 233 233 237 235 228 228 230 230 229 229 227 224 225
265 241 232 234 213 113 116 63 17 8 357 354 344 32 55 23 5 352 348 356 357 243 201 185 185 181 177 177 175 180 189 188 187 183 162 144 153 165 157 144 145 147 146 147 148 146 144 141 134 136 152 175 204 216 220 224 227 227 227 226 225 223 220 217 218 220 223 224 226 230 234 235 237 237 235 234 236 232 224 221 220 219 219 221 222 222 223
259 255 244 208 175 143 96 34 18 11 357 349 337 299 59 26 6 353 351 358 357 232 177 164 163 161 164 177 181 181 183 176 178 178 157 146 152 157 152 145 141 145 149 151 158 164 161 153 141 141 155 149 149 182 199 211 220 224 222 220 219 219 217 215 215 216 217 217 218 220 223 227 231 232 229 225 221 219 216 210 205 205 207 212 219 224 223
259 262 251 222 211 197 55 29 15 4 350 335 318 280 83 30 7 351 342 346 354 184 156 156 164 167 178 198 187 178 176 168 166 162 143 138 144 146 145 140 132 135 142 147 156 159 154 152 148 149 153 139 122 124 131 147 174 192 196 192 190 192 194 193 193 195 197 199 202 203 202 207 214 215 213 211 208 207 208 206 205 207 207 207 208 210 214
252 261 248 244 238 195 30 7 355 354 348 326 282 242 168 28 2 345 334 333 321 189 171 174 182 185 196 202 176 167 168 161 153 145 132 129 136 138 137 135 131 129 132 135 140 140 137 138 139 144 150 147 138 130 123 124 132 140 149 152 151 147 143 145 150 152 159 167 172 182 190 191 191 188 186 189 189 191 194 196 200 205 207 206 204 202 209
246 268 256 255 154 74 17 351 343 346 346 326 255 223 128 9 350 336 328 321 295 202 191 197 200 205 228 206 157 153 158 152 136 129 131 134 137 135 133 133 132 130 130 129 128 128 128 125 125 133 142 146 144 137 129 126 123 121 124 129 130 126 122 123 124 121 123 130 135 142 146 143 145 153 156 159 164 168 174 178 183 190 195 198 199 200 210
195 239 256 250 110 63 357 343 342 339 328 279 240 258 344 340 331 325 319 309 292 237 212 214 215 226 263 116 128 133 142 144 134 130 136 136 133 135 137 135 133 130 129 129 129 128 126 123 124 131 136 139 140 136 134 133 127 123 125 124 121 118 115 113 114 117 119 121 123 124 122 123 131 138 134 131 131 133 138 148 158 167 175 181 185 191 202
287 248 268 254 127 48 348 335 344 346 324 237 305 336 324 319 320 321 314 303 290 261 229 222 223 224 193 135 136 142 149 151 148 148 145 138 134 138 139 134 133 135 135 134 132 127 123 123 130 137 139 138 137 136 137 136 130 127 130 128 121 118 120 120 119 121 123 124 124 124 125 128 131 129 122 118 119 121 125 131 138 143 149 158 167 177 188
282 234 256 266 150 40 358 342 359 12 2 343 335 326 318 322 327 326 320 307 289 276 252 230 222 211 172 146 144 151 158 159 165 170 158 149 150 151 144 138 139 139 136 134 129 126 126 129 136 144 144 140 141 144 142 139 135 133 136 135 126 119 125 130 131 128 128 128 128 127 129 132 130 126 120 116 116 118 120 123 125 124 128 139 150 160 171
291 257 259 348 37 33 14 11 40 36 12 346 330 321 321 332 337 334 331 320 304 305 284 240 215 180 145 133 128 134 139 134 147 158 154 156 162 154 141 139 141 137 134 133 128 126 131 134 139 148 149 143 145 146 142 138 135 133 135 137 133 130 132 137 139 136 134 134 134 131 129 132 133 129 121 115 113 114 115 118 119 119 122 129 133 136 142
0 358 45 68 61 39 33 45 59 39 6 347 337 331 332 338 344 345 337 325 320 324 307 254 202 168 160 151 140 145 150 134 138 149 147 154 160 152 144 145 143 136 136 136 130 127 133 138 140 145 150 151 150 145 141 138 136 135 137 138 138 138 139 139 140 140 138 137 137 133 128 127 129 128 125 120 115 113 113 120 131 139 140 139 146 163 174
90 63 70 91 83 56 45 55 59 39 21 7 353 347 349 350 351 352 346 336 330 321 297 210 164 170 171 164 155 160 169 171 160 152 153 160 160 152 151 155 153 145 140 135 130 129 132 132 132 136 145 154 154 146 140 138 137 139 143 146 146 144 141 139 142 144 142 143 145 145 142 142 142 144 148 148 142 133 128 129 138 145 144 141 151 165 172
189 151 85 95 100 68 48 42 44 33 22 16 7 359 357 354 355 359 358 354 345 324 264 180 164 170 174 173 171 173 177 177 164 143 144 153 154 150 150 153 156 157 150 137 133 138 140 134 129 129 137 150 155 147 139 142 146 148 151 154 155 151 145 143 142 141 142 146 147 143 143 144 144 146 155 166 169 163 156 152 149 147 143 143 145 147 146
243 118 88 103 143 105 55 32 29 23 13 12 11 6 3 1 2 7 9 7 5 351 280 170 162 169 176 180 181 179 181 191 197 192 171 150 134 128 128 129 137 146 146 140 139 148 153 148 140 136 139 146 150 144 140 148 154 155 157 158 156 151 147 144 142 143 146 145 139 138 141 143 142 141 144 154 167 172 171 167 163 158 151 145 143 141 140
226 151 106 107 185 174 95 24 15 8 1 1 2 4 8 9 10 13 13 15 20 18 25 154 164 176 185 195 201 196 183 185 196 200 193 177 153 128 108 95 102 120 127 129 134 138 137 133 129 135 136 133 132 134 139 149 156 160 162 158 152 150 149 146 144 145 142 137 135 141 149 154 156 154 153 158 167 172 172 168 167 167 164 158 156 156 155
239 137 76 30 290 233 345 6 353 346 348 350 352 357 3 7 10 14 13 13 20 25 34 170 199 201 201 209 214 208 189 178 184 189 186 181 175 160 130 101 87 81 69 63 72 118 135 119 103 103 110 109 115 126 131 139 150 160 163 159 159 160 159 156 153 148 143 140 138 135 139 148 157 161 160 162 167 169 170 171 171 172 174 176 180 182 183
339 47 47 15 322 302 333 343 334 333 339 341 342 346 353 359 5 9 13 16 15 13 13 333 240 221 217 220 218 211 199 185 184 188 184 175 170 166 154 134 87 44 42 43 37 54 103 106 98 97 102 105 110 117 123 133 147 154 157 160 162 163 164 166 163 158 156 155 148 142 143 146 150 158 161 164 169 169 168 171 174 178 184 191 197 204 211
350 30 29 349 304 297 311 321 322 327 332 333 334 332 335 347 356 360 7 15 18 15 4 333 275 212 212 214 211 210 208 201 196 197 192 177 168 168 172 193 233 304 49 44 31 55 83 94 100 106 109 107 106 113 124 132 142 149 153 158 163 169 175 175 168 163 164 163 158 158 159 149 140 145 147 151 164 173 175 179 186 193 202 208 213 220 233
300 321 329 303 286 290 302 305 307 321 327 330 332 325 323 331 343 353 359 4 13 21 20 336 245 205 195 196 202 208 210 207 203 199 191 181 184 197 207 220 233 241 282 351 356 50 104 120 127 128 124 118 128 146 147 147 156 164 163 161 167 177 180 172 165 165 168 167 165 165 163 161 161 158 149 150 163 175 185 198 212 219 221 224 229 236 247
295 300 290 278 267 276 300 299 296 327 338 335 329 325 321 323 333 348 357 357 1 14 23 21 227 207 190 183 190 200 200 197 196 197 199 199 202 206 207 210 219 229 245 269 287 284 220 179 155 151 148 139 144 156 154 156 170 179 177 173 179 187 184 173 172 176 176 177 180 178 173 173 173 171 176 182 181 180 185 210 264 268 250 237 229 227 233
275 282 281 276 254 240 338 348 343 345 347 342 333 329 327 327 333 341 348 352 360 8 18 29 229 213 200 189 185 190 194 197 199 205 214 215 208 204 206 208 209 217 233 250 263 263 249 228 192 177 182 182 173 164 158 161 174 183 185 184 190 198 193 182 180 185 183 185 193 194 189 187 186 187 193 193 190 193 196 200 235 274 284 268 239 225 226
213 251 297 306 288 110 59 40 21 359 355 352 345 340 335 333 335 337 339 344 350 354 358 3 359 225 214 212 204 195 198 207 210 215 223 222 214 208 208 205 199 208 229 241 243 242 245 248 243 239 241 237 193 163 160 167 175 182 188 191 194 200 199 190 193 205 202 195 195 197 194 193 197 200 196 188 187 194 200 203 211 225 252 266 264 274 270
175 163 122 72 73 83 84 73 49 27 17 11 4 360 356 349 340 339 344 341 335 333 328 319 311 268 234 229 214 203 206 211 210 211 217 217 210 203 201 197 192 199 215 226 231 231 233 238 239 236 246 258 228 178 164 163 172 180 185 186 188 195 201 201 203 208 207 200 198 199 193 189 193 194 185 179 183 188 194 203 206 210 227 239 257 315 317
173 161 145 121 107 100 95 81 50 34 23 17 14 10 9 6 354 344 346 341 331 325 316 305 297 267 243 235 216 204 206 210 210 207 206 204 200 196 196 199 200 200 203 209 214 216 219 225 223 210 219 256 260 206 173 166 171 179 180 179 183 189 194 198 201 202 199 197 201 198 189 181 183 183 176 178 185 185 191 200 200 201 216 226 219 229 269
173 165 159 145 136 128 117 18 346 356 2 2 2 359 1 4 359 350 349 345 338 331 314 300 294 271 248 239 228 216 208 206 208 208 203 202 204 205 207 212 216 213 208 205 204 204 209 217 215 207 228 253 253 208 179 171 166 172 180 182 187 190 189 187 187 187 187 186 185 182 179 181 188 186 179 182 186 183 186 197 198 198 207 218 221 223 236
178 176 180 184 201 233 249 289 316 323 327 333 337 339 342 342 339 337 339 339 337 333 318 301 291 274 256 246 236 227 218 210 209 213 215 211 210 214 218 221 220 217 211 206 203 203 207 214 213 207 231 246 229 190 184 176 166 173 185 184 184 188 187 183 178 176 182 182 175 174 178 180 184 189 188 188 185 181 185 193 195 199 207 212 224 238 243
194 201 203 205 217 239 260 294 309 315 322 325 324 323 326 327 324 323 324 325 328 327 316 303 292 277 264 254 241 235 231 224 219 223 229 223 213 214 221 223 217 212 209 210 213 211 212 219 223 222 233 239 213 182 188 185 173 177 184 181 182 193 194 190 184 179 181 179 171 170 174 173 177 187 192 189 184 183 189 195 195 203 213 212 223 249 259
208 219 216 196 201 231 272 295 301 307 313 314 314 314 316 318 318 316 314 313 315 316 313 303 291 277 265 255 246 239 235 229 222 223 227 223 214 212 219 222 216 210 209 214 218 214 209 216 225 231 236 231 203 186 193 190 183 188 189 182 184 196 198 190 182 172 172 173 167 165 166 167 176 186 187 183 186 189 192 197 198 202 215 218 223 255 274
196 196 182 173 189 233 282 291 292 297 298 298 300 301 300 302 305 306 307 305 303 302 303 302 296 285 271 258 249 241 237 235 231 230 231 229 222 217 218 217 212 208 209 214 217 210 205 212 224 231 227 208 187 194 204 196 192 203 201 186 182 186 182 174 168 164 166 168 163 160 163 167 174 183 183 180 186 189 189 197 201 201 214 223 221 246 279
189 189 191 198 219 255 277 280 284 291 292 290 291 291 290 291 290 290 292 294 295 295 296 295 293 289 279 267 258 250 244 242 240 238 239 240 236 229 222 216 211 209 210 213 212 205 205 214 222 225 217 196 181 194 206 199 196 206 199 183 177 179 172 166 165 165 165 162 158 160 168 169 171 178 180 176 182 188 189 199 205 201 204 219 221 224 252
193 193 200 215 237 261 275 280 285 289 289 288 288 288 287 285 284 284 284 284 283 286 288 287 285 285 282 274 265 257 250 245 242 240 241 241 237 229 221 215 213 212 210 208 206 202 204 214 218 217 211 198 186 192 206 203 197 195 186 174 172 174 170 168 170 167 163 164 166 166 168 167 170 178 179 174 180 189 189 196 209 207 204 218 229 228 230
196 207 224 243 259 270 276 281 287 291 292 290 289 289 286 284 283 282 281 280 278 277 277 278 278 279 280 276 270 262 255 248 241 241 240 234 227 222 217 215 215 214 210 208 206 199 198 209 214 210 202 195 188 196 210 205 191 181 175 172 174 174 169 169 170 166 165 170 169 165 165 169 174 179 178 177 185 191 191 194 202 206 211 225 238 249 260
204 226 246 261 269 273 278 282 287 292 293 293 293 293 290 289 287 283 280 278 277 273 272 273 273 273 275 275 272 267 261 253 242 236 234 231 227 222 218 218 219 219 215 212 209 203 200 208 211 205 196 190 187 195 206 198 184 176 175 176 175 173 171 171 171 170 171 173 170 166 170 175 175 175 181 187 193 198 203 205 201 199 210 232 248 263 265
211 232 248 257 259 261 271 280 286 292 297 300 302 301 297 295 293 288 284 281 278 275 272 270 268 268 268 269 268 267 264 258 249 240 234 232 228 223 220 220 224 225 222 217 212 208 209 211 209 201 193 187 186 194 202 194 183 179 178 176 174 174 173 172 170 169 171 172 167 165 169 175 175 177 185 191 190 191 200 212 210 202 213 230 240 246 251
220 234 243 248 250 253 264 278 289 298 302 303 302 300 300 299 297 293 289 286 282 278 272 267 264 263 262 263 265 266 264 259 252 244 237 231 226 223 221 219 219 221 222 219 215 213 214 212 206 199 190 184 185 194 198 190 181 179 178 175 175 176 173 170 167 166 167 168 164 163 169 176 175 174 179 184 182 180 187 199 207 209 215 224 231 240 251
224 233 238 245 250 255 267 284 293 296 299 302 301 299 299 296 292 289 288 286 282 279 274 270 266 263 260 259 260 261 262 259 252 244 238 232 227 225 224 221 218 217 218 216 213 214 215 211 203 195 189 185 187 195 195 186 179 180 181 178 176 176 174 169 168 170 170 167 166 168 172 172 170 174 177 176 176 184 192 198 202 210 221 231 239 252 266
217 227 240 251 257 264 277 287 291 294 298 302 302 301 299 296 291 288 286 282 278 275 272 270 268 265 262 259 257 257 258 258 253 247 242 239 235 230 227 224 223 222 219 214 211 214 216 212 202 193 189 190 193 197 195 187 181 181 183 181 178 176 174 172 172 173 172 168 167 170 171 167 168 176 175 169 176 196 203 195 196 211 228 241 253 269 277
214 228 243 254 258 266 277 283 287 294 301 302 301 300 300 297 294 292 289 285 281 275 269 266 264 261 258 255 253 252 252 252 252 249 245 242 239 234 227 224 226 227 223 216 212 213 215 212 205 199 198 200 202 202 195 188 184 183 184 183 179 177 177 177 174 172 171 169 168 171 172 168 166 170 174 176 185 200 200 175 189 217 232 251 279 289 292
218 234 245 253 261 271 281 288 294 301 305 305 305 305 302 298 295 293 290 287 284 280 273 266 261 256 253 251 249 247 246 246 248 249 247 244 241 237 230 225 225 224 222 219 217 217 216 214 212 212 210 208 206 203 194 187 185 186 185 182 180 179 179 179 177 176 176 176 173 172 174 171 167 171 183 184 181 187 194 188 189 219 263 285 283 286 292
228 240 243 252 267 278 289 299 305 307 308 307 306 305 303 299 298 296 292 287 285 282 278 271 263 256 252 250 248 246 246 244 244 246 248 247 243 238 233 230 228 224 221 221 222 221 217 213 212 214 211 204 199 198 193 186 184 185 184 181 180 181 180 181 181 179 178 178 176 176 177 175 171 179 191 188 178 190 211 200 164 163 285 287 285 289 294
234 242 244 255 275 287 298 306 310 310 312 312 310 308 306 303 301 299 294 290 287 284 282 278 272 263 254 248 245 244 243 243 244 245 246 245 242 238 233 233 234 230 222 220 222 223 217 211 208 208 205 199 195 194 192 187 184 184 183 181 180 180 180 181 182 180 178 182 186 187 185 181 178 189 203 203 193 205 229 229 204 225 269 287 292 292 294
235 239 245 264 283 293 304 313 317 319 321 319 316 313 312 310 307 304 300 296 291 286 282 279 274 267 258 250 244 241 239 240 242 243 241 239 237 233 230 231 235 230 218 216 220 221 216 209 205 202 200 196 193 191 189 185 183 183 182 180 180 180 181 181 183 185 188 193 197 199 201 201 200 205 214 217 217 221 230 237 242 255 268 277 284 286 285
231 237 250 272 289 300 311 323 330 333 334 330 325 322 320 318 316 315 311 304 297 291 286 279 272 266 260 252 245 241 238 237 238 240 240 235 229 223 223 229 231 223 211 211 215 214 208 204 202 198 194 191 189 186 184 183 181 179 179 179 179 181 184 187 190 194 199 202 204 208 212 215 218 220 219 221 228 235 238 243 252 254 250 249 258 274 281
227 240 255 270 288 304 322 336 344 344 341 339 335 333 332 330 329 328 324 314 303 297 292 283 272 264 258 251 245 240 236 236 236 236 234 232 228 222 219 221 223 219 212 209 208 204 200 198 197 194 191 188 184 180 181 182 179 175 175 178 181 185 193 197 197 196 198 204 211 217 218 218 222 227 228 228 234 240 243 249 257 257 254 254 262 275 279
229 242 248 262 294 320 335 346 349 348 349 349 347 346 346 344 340 336 334 329 320 311 301 289 274 263 256 251 246 239 234 234 235 232 227 227 228 226 221 218 220 218 213 208 204 199 194 191 189 189 189 186 179 176 179 182 179 176 176 180 183 191 201 205 204 204 207 211 214 221 226 228 229 231 233 236 239 244 249 256 262 265 266 269 271 274 276
224 236 232 239 304 340 348 354 357 357 358 1 1 359 357 354 349 346 349 352 348 333 315 298 286 273 262 254 247 239 233 229 227 226 224 223 224 224 223 219 216 212 209 207 203 196 189 185 184 184 183 178 173 172 176 178 179 181 183 184 187 196 207 211 211 215 224 230 230 227 228 232 235 239 243 246 250 256 263 268 271 273 276 277 277 278 279